Погода в Роче

Уругвай     34°28′56″S   54°19′43″W
темп.,
°C
ветер,
м/с
пор.,
м/с
влажн.,
%
обл.,
%
осадки,
мм/ч
давл.,
гПа
погр.,
м
9 августа, вт
вт900:00+7юв0186100 0.0 103018
03:00+7юв2289100 0.0 102930
06:00+7ююв2392100 0.0 102954
09:00+10юв2682100 0.0 1031414
12:00+13ююв556169 0.0 10321246
15:00+12ююв55625 0.0 10301233
18:00+8ююв33885 0.0 103051
21:00+7ююв23915 0.0 103158
10 августа, ср
ср1000:00+6ю22850 0.0 103031
03:00+5ююз11871 0.0 102911
06:00+5зюз11924 0.0 102910
09:00+8юз34840 0.0 1029135
12:00+14вюв34571 0.0 10291339
15:00+14в335824 0.0 10271292
18:00+9в228298 0.0 102620
21:00+7всв228893 0.0 102728
11 августа, чт
чт1100:00+7ссв2292100 0.0 102714
03:00+7ссв2296100 0.0 102512
06:00+7с22971 0.0 102511
09:00+10с24890 0.0 1026155
12:00+15с46620 0.0 1026943
15:00+16ссз56550 0.0 10241207
18:00+11с33780 0.0 102335
21:00+8ссв35870 0.0 102378
12 августа, пт
пт1200:00+8ссв33935 0.0 102353
03:00+8ссв311965 0.0 1022260
06:00+7ссв311965 0.0 1022240
09:00+11ссв3108539 0.0 1022302
12:00+16ссв5867100 0.0 1020840
15:00+18с5764100 0.0 10171150
18:00+14ссв3587100 0.0 101787
21:00+12ссв31095100 0.0 1018229
13 августа, сб
сб1300:00+11с41295100 0.0 1018280
03:00+10с36971 0.0 1018132
06:00+10с33960 0.0 101856
09:00+13с24865 0.0 1019153
12:00+19сз12680 0.0 1019720
15:00+20в226217 0.0 10171182
18:00+14в35915 0.0 101785
21:00+12св35930 0.0 101888